Preview of NWS' New Version of Forecast
This preview is not operational and should not be used for support decisions.

Regional Weather Roundup (RWR)

Issued by National Weather Service (NWS)

                            
000
ASPQ40 PGUM 242210
RWRPQ 
WEATHER ROUNDUP FOR THE MARIANAS AND MICRONESIA
NATIONAL WEATHER SERVICE TIYAN GU
800 AM CHST SUN AUG 25 2019

GUZ001>004-242300-
MARIANA ISLANDS-
  
CITY           SKY/WX    TMP DP  RH WIND       PRES   REMARKS
GUAM AIRPORT   MOSUNNY   82  75  78 SE9       29.81R                  
ANDERSEN AFB   PTSUNNY   82  75  78 S16       29.82R                  
ROTA AIRPORT   MOSUNNY   82  75  78 SE23      29.79R                  
TINIAN AP      PTSUNNY   82  75  78 SE8       29.81R                  
SAIPAN AP      PTSUNNY   84  77  79 SE15      29.83R HX  94           

$$

PMZ161-242300-
REPUBLIC OF PALAU-
  
CITY           SKY/WX    TMP DP  RH WIND       PRES   REMARKS
KOROR AP       LGT RAIN  77  73  88 W10G17    29.79S                  
KOROR WSO      NOT AVBL                                               

$$

PMZ171>174-242300-
FEDERATED STATES OF MICRONESIA-
  
CITY           SKY/WX    TMP DP  RH WIND       PRES   REMARKS
YAP AIRPORT    CLOUDY    79  77  94 VRB3      29.75R                  
CHUUK AP       CLOUDY    84  79  84 VRB3      29.86R HX  96           
POHNPEI AP     MOSUNNY   84  77  79 N3        29.85S HX  94           
POHNPEI WSO    PTSUNNY   86  79  79 CALM      29.90R HX  99           
KOSRAE AP      NOT AVBL                                               

$$

PMZ181-242300-
REPUBLIC OF THE MARSHALL ISLANDS-
  
CITY           SKY/WX    TMP DP  RH WIND       PRES   REMARKS
KWAJALEIN AP   MOSUNNY   86  79  79 E12       29.87R HX  99           
MAJURO AP      NOT AVBL                                               
MAJURO WSO     PTSUNNY   88  77  70 SE8       29.83S HX 100           

$$